Lid_Strength_Index
1 1 0 0 0 0 -0 -1 -1 -1 -1 -1 -1 -1 -1 -1 -0 1 4 3 2 -2 1 3 3 3 3 4 4 4 8 9 9 9 8 6 7 6 5 6 6 6 6 6 5
1 1 1 0 0 0 -0 -0 -0 -1 -1 -1 -1 -1 -1 -0 2 4 1 -2 -2 -2 3 4 5 5 5 5 4 6 8 9 7 7 7 6 6 6 7 6 7 6 5 5 5
0 1 1 0 0 0 0 -0 -0 -1 -1 -1 -1 -1 -1 0 3 5 -0 -2 -2 1 3 4 4 5 6 5 6 6 8 8 8 7 6 6 7 6 7 8 7 7 7 6 6
0 0 0 0 0 0 0 -0 -0 -1 -1 -1 -1 -1 -0 1 8 4 -1 -2 -2 2 3 4 5 6 7 7 6 8 7 7 7 6 7 7 6 7 7 7 7 7 7 7 7
-0 0 0 0 0 0 0 -0 -0 -1 -1 -1 -1 -1 1 4 4 1 -1 -1 2 3 4 5 6 6 8 7 7 7 7 7 6 6 6 7 7 7 8 8 8 8 8 8 8
0 0 0 0 0 0 0 0 -0 -0 -1 -1 -1 -0 3 6 2 1 2 3 3 4 5 5 6 6 7 7 7 7 7 7 7 7 7 8 7 8 8 8 8 8 9 9 9
0 0 1 0 0 0 0 0 0 -0 -0 -1 -0 2 4 4 1 1 3 3 3 4 5 4 4 6 6 8 7 7 8 7 7 7 8 8 9 10 8 8 9 9 9 9 9
0 1 1 1 0 0 0 0 0 -0 -0 0 0 2 5 3 0 2 2 4 3 4 4 4 4 5 6 6 8 9 8 10 7 8 8 8 10 8 9 9 9 9 9 9 10
1 1 1 0 0 0 0 0 0 -0 0 0 2 3 6 2 4 2 2 4 4 4 4 5 5 7 7 9 9 9 11 10 9 8 9 9 10 10 10 10 10 10 10 10 10
1 1 1 1 1 1 1 0 -0 1 1 1 2 5 4 6 4 2 3 4 5 6 6 6 7 8 9 9 12 10 10 10 10 9 10 10 10 11 11 10 10 10 10 11 11
1 1 1 1 1 1 1 1 4 5 4 5 5 5 5 6 4 5 4 5 5 7 9 7 10 11 9 8 8 9 10 10 9 9 11 10 10 9 11 11 11 11 11 11 11
1 1 1 2 1 1 2 4 4 4 7 4 4 5 5 6 8 6 5 7 8 10 9 11 12 9 8 8 9 10 11 11 10 11 12 11 11 9 10 11 11 11 11 11 11
2 2 2 2 2 2 3 3 3 4 7 7 5 5 5 7 7 8 7 8 9 10 11 11 9 9 10 11 11 11 11 11 12 12 12 12 12 11 10 11 12 11 10 11 11
1 1 1 2 4 3 4 2 1 4 10 9 8 6 7 7 9 6 7 8 11 11 10 11 9 11 11 12 11 13 10 11 12 13 14 11 15 10 11 13 13 12 12 12 11
1 1 1 2 3 4 3 2 1 3 19 8 8 6 7 8 8 10 7 9 11 11 11 12 12 12 12 12 11 12 11 12 12 13 13 12 15 12 12 13 13 12 12 11 12
1 1 1 2 3 3 2 2 4 13 19 11 9 10 10 9 11 10 10 9 9 10 11 11 11 11 11 11 11 11 12 12 13 13 16 13 14 13 13 13 12 12 12 12 12
2 2 1 1 4 3 3 5 13 18 9 11 11 10 10 11 12 11 12 12 13 15 14 12 12 11 11 13 12 12 13 17 18 18 18 14 13 12 10 11 10 12 12 11 12
1 2 2 1 2 3 4 9 18 13 11 10 11 10 11 11 11 12 12 13 11 11 12 14 15 12 11 11 12 13 12 16 21 20 16 16 17 13 11 10 11 10 11 11 12
1 1 2 2 3 3 7 15 14 11 9 12 12 13 12 11 10 12 11 12 10 11 13 13 13 11 11 10 10 13 14 11 16 18 17 15 13 11 13 13 12 11 11 11 12
2 3 4 1 2 4 10 13 12 9 9 9 13 11 13 12 13 12 12 10 10 9 9 11 14 13 13 12 12 12 11 16 15 20 20 15 14 13 14 13 13 12 11 11 11
3 6 2 -0 2 7 13 12 10 8 8 11 11 11 11 11 11 13 11 10 9 10 10 10 12 15 14 15 14 14 14 13 13 14 18 18 14 10 10 11 12 12 11 11 11
4 9 1 1 9 9 12 10 9 8 7 10 10 10 11 10 12 12 12 10 10 10 12 10 12 15 15 12 11 11 13 13 15 17 15 15 14 11 10 9 10 11 10 10 10
6 6 2 3 12 11 9 9 8 9 9 10 11 9 9 11 14 11 10 9 10 10 11 10 13 18 15 14 14 14 13 12 12 13 16 17 15 12 11 10 9 10 10 10 10
7 10 7 6 6 9 10 11 11 8 9 8 9 9 11 12 12 12 11 11 10 10 10 10 12 15 17 13 12 15 14 13 13 15 15 14 12 13 12 11 10 9 9 9 10
7 9 8 12 10 9 9 10 11 12 9 8 11 10 11 14 13 13 11 11 12 11 11 11 16 13 12 11 12 12 13 13 14 13 14 12 12 10 11 11 10 9 9 10 10
9 9 9 10 9 9 9 11 11 11 10 11 12 10 10 13 12 14 11 11 12 13 13 12 15 14 15 12 12 14 13 12 13 13 12 12 11 8 8 9 9 9 10 11 11
6 8 9 11 11 11 11 10 10 9 9 9 9 10 11 10 8 8 9 9 10 12 14 15 15 16 17 13 14 17 14 13 12 11 11 14 11 12 11 11 10 10 10 11 10